Voltar ao catálogo

STARLINK-34925

AtivoComunicaçõesSSO
NORAD 65249·PAYLOAD·🇺🇸 United States

Lançado Aug 18, 2025 de Vandenberg Space Force Base

Loading…

Próximas Passagens (próximas 24 horas)

TLE

AtualizadoSource: CelesTrak SupGP

Época: Sep 14, 2026, 21:28 UTC

1 65249C 25179Q   26257.89493056  .00007463  00000+0  23175-3 0  2573
2 65249  97.2829 297.3027 0001233  93.0805 271.4539 15.33425143    12

Acompanhe STARLINK-34925 em tempo real com AllMySat

Download on the App Store